Weather History for KICR - November, 2012

Change the Weather History Date:

Thursday, November 1, 2012

  Actual Average Record
Temperature  
Mean Temperature 40 °F 44 °F  
Max Temperature 43 °F 54 °F 75 °F (2008)
Min Temperature 36 °F 33 °F 33 °F (2013)
Degree Days  
Heating Degree Days 25 21  
Month to date heating degree days 25 21  
Since 1 July heating degree days 570 619  
Cooling Degree Days 0 0  
Month to date cooling degree days 0 0  
Year to date cooling degree days 1470 916  
Moisture  
Dew Point 39 °F    
Average Humidity 91    
Maximum Humidity 100    
Minimum Humidity 82    
Precipitation  
Precipitation T in 0.04 in 0.10 in (2011)
Month to date precipitation T 0.04  
Year to date precipitation 10.15 20.67  
Sea Level Pressure  
Sea Level Pressure 30.04 in    
Wind  
Wind Speed 10 mph (ENE)    
Max Wind Speed 18 mph    
Max Gust Speed 22 mph    
Visibility 4 miles    
Events Fog , Rain    
T = Trace of Precipitation, MM = Missing Value Source: NWS Daily Summary

Daily Weather History Graph

Daily Weather History Graph

Search for Another Location

Airport or City:

Trip Planner

Search our weather history database for the weather conditions in past years. The results will help you decide how hot, cold, wet, or windy it might be!

Date:

Astronomy

Nov. 01, 2012 Rise Set
Actual Time 8:15 AM CDT 6:29 PM CDT
Civil Twilight 7:45 AM CDT 6:59 PM CDT
Nautical Twilight 7:11 AM CDT 7:33 PM CDT
Astronomical Twilight 6:38 AM CDT 8:06 PM CDT
Moon 8:24 PM CDT (11/1) 10:53 AM CDT (11/1)
Length of Visible Light 11h 14m
Length of Day
10h 14m
Waning Gibbous, 93% of the Moon is Illuminated
Nov 1
Waning Gibbous
Nov 6
Last Quarter
Nov 13
New
Nov 20
First Quarter
Nov 28
Full

Hourly Weather History & Observations

Time (CDT) Temp. Windchill Dew Point Humidity Pressure Visibility Wind Dir Wind Speed Gust Speed Precip Events Conditions
12:53 AM 42.1 °F 34.5 °F 39.0 °F 89% 30.04 in 10.0 mi NNW 15.0 mph - N/A   Clear
1:41 AM 41.0 °F 35.2 °F 37.4 °F 87% 30.06 in 9.0 mi NNW 9.2 mph - N/A   Scattered Clouds
1:50 AM 42.8 °F 38.0 °F 39.2 °F 87% 30.07 in 8.0 mi NW 8.1 mph - N/A   Mostly Cloudy
1:53 AM 42.1 °F 36.6 °F 39.9 °F 92% 30.06 in 8.0 mi NW 9.2 mph - N/A   Mostly Cloudy
2:03 AM 42.8 °F 37.0 °F 39.2 °F 87% 30.06 in 7.0 mi NNW 10.4 mph - N/A   Overcast
2:35 AM 42.8 °F 37.5 °F 41.0 °F 93% 30.07 in 5.0 mi NNW 9.2 mph - N/A   Overcast
2:53 AM 43.0 °F 36.0 °F 41.0 °F 93% 30.06 in 4.0 mi North 13.8 mph - N/A   Overcast
3:53 AM 43.0 °F 37.7 °F 41.0 °F 93% 30.05 in 3.0 mi North 9.2 mph - N/A   Overcast
4:53 AM 43.0 °F 37.2 °F 41.0 °F 93% 30.06 in 3.0 mi NNE 10.4 mph - N/A   Overcast
5:51 AM 42.8 °F 37.0 °F 41.0 °F 93% 30.07 in 2.5 mi NNE 10.4 mph - N/A   Overcast
5:53 AM 43.0 °F 37.2 °F 41.0 °F 93% 30.08 in 2.5 mi NNE 10.4 mph - N/A   Overcast
6:09 AM 42.8 °F 38.0 °F 41.0 °F 93% 30.08 in 3.0 mi North 8.1 mph - 0.00 in Rain Light Rain
6:22 AM 42.8 °F 38.6 °F 41.0 °F 93% 30.08 in 2.5 mi North 6.9 mph - 0.00 in Rain Light Rain
6:29 AM 42.8 °F 39.3 °F 41.0 °F 93% 30.08 in 3.0 mi NNE 5.8 mph - 0.00 in Rain Light Rain
7:04 AM 42.8 °F 39.3 °F 41.0 °F 93% 30.07 in 2.5 mi North 5.8 mph - 0.00 in Rain Light Rain
7:17 AM 42.8 °F 40.1 °F 41.0 °F 93% 30.07 in 3.0 mi North 4.6 mph - 0.00 in Rain Light Rain
7:27 AM 42.8 °F 39.3 °F 41.0 °F 93% 30.07 in 2.5 mi North 5.8 mph - 0.00 in Rain Light Rain
7:53 AM 42.1 °F 38.4 °F 41.0 °F 96% 30.09 in 2.0 mi NNE 5.8 mph - 0.00 in Rain Light Rain
8:05 AM 42.8 °F 39.3 °F 41.0 °F 93% 30.06 in 2.5 mi NE 5.8 mph - 0.00 in Rain Light Rain
8:10 AM 42.8 °F 37.0 °F 41.0 °F 93% 30.07 in 1.8 mi NNE 10.4 mph - 0.00 in Rain Light Rain
8:53 AM 41.0 °F 36.4 °F 39.9 °F 96% 30.09 in 1.5 mi NNE 6.9 mph - 0.00 in Rain Light Rain
10:25 AM 42.8 °F 38.6 °F 41.0 °F 93% 30.07 in 0.5 mi East 6.9 mph - N/A Fog Fog
10:43 AM 42.8 °F 38.6 °F 41.0 °F 93% 30.07 in 1.5 mi ESE 6.9 mph - N/A   Overcast
10:53 AM 42.1 °F 38.4 °F 41.0 °F 96% 30.10 in 2.0 mi East 5.8 mph - N/A   Overcast
11:02 AM 42.8 °F 37.5 °F 39.2 °F 87% 30.07 in 2.5 mi East 9.2 mph - N/A   Overcast
11:09 AM 42.8 °F 38.0 °F 39.2 °F 87% 30.07 in 3.0 mi ESE 8.1 mph - N/A   Overcast
11:53 AM 41.0 °F 35.8 °F 39.9 °F 96% 30.09 in 3.0 mi East 8.1 mph - N/A   Overcast
12:53 PM 39.9 °F 33.4 °F 39.0 °F 97% 30.08 in 2.0 mi East 10.4 mph - N/A   Overcast
1:00 PM 39.2 °F 32.0 °F 39.2 °F 100% 30.04 in 1.0 mi East 11.5 mph - N/A   Overcast
1:09 PM 39.2 °F 33.0 °F 39.2 °F 100% 30.03 in 0.8 mi East 9.2 mph - N/A   Overcast
1:31 PM 39.2 °F 33.6 °F 39.2 °F 100% 30.03 in 1.8 mi East 8.1 mph - N/A   Overcast
1:41 PM 41.0 °F 35.2 °F 39.2 °F 93% 30.02 in 2.5 mi ESE 9.2 mph - N/A   Overcast
1:53 PM 41.0 °F 35.2 °F 39.0 °F 93% 30.05 in 3.0 mi East 9.2 mph - N/A   Overcast
2:53 PM 42.1 °F 36.6 °F 39.0 °F 89% 30.03 in 9.0 mi East 9.2 mph - N/A   Overcast
3:53 PM 42.1 °F 34.9 °F 39.0 °F 89% 30.00 in 7.0 mi ESE 13.8 mph - N/A   Overcast
4:53 PM 42.1 °F 34.9 °F 39.0 °F 89% 29.98 in 7.0 mi ESE 13.8 mph - N/A   Overcast
5:53 PM 42.1 °F 34.5 °F 37.9 °F 85% 29.96 in 8.0 mi SE 15.0 mph - N/A   Overcast
6:53 PM 39.9 °F 33.4 °F 37.0 °F 89% 29.96 in 9.0 mi SE 10.4 mph - N/A   Partly Cloudy
7:53 PM 37.0 °F 31.6 °F 35.1 °F 93% 29.96 in 7.0 mi SE 6.9 mph - N/A   Clear
8:53 PM 36.0 °F 31.1 °F 34.0 °F 93% 29.97 in 6.0 mi East 5.8 mph - N/A   Clear
9:53 PM 37.0 °F 29.3 °F 36.0 °F 96% 29.96 in 5.0 mi ESE 11.5 mph - N/A   Clear
10:53 PM 39.0 °F 31.0 °F 37.0 °F 93% 29.94 in 6.0 mi ESE 13.8 mph - N/A   Clear
11:53 PM 39.0 °F 30.6 °F 37.0 °F 93% 29.93 in 8.0 mi ESE 15.0 mph - N/A   Clear